Location: Remedello Sotto
(45.2500°N, 10.3667°E)
Time: 05:39:51
(UTC+00:00)

BlueWalker 3 - Pass Details

Date: 03 February 2023
Orbit: 497 x 514 km, 53.2° (Epoch: 29 March)

Event Time Altitude Azimuth Distance (km) Brightness Sun altitude
Rises 18:27:48 0° 296° (WNW) 2,607 6.6 -21.3°
Reaches altitude 10° 18:30:14 10° 309° (NW) 1,725 5.3 -21.7°
Enters shadow 18:33:15 26° 359° (N) 1,034 3.5 -22.2°
